AEA45L LOWW-EDDS

Flight info

Callsign AEA45L
Flight time N/A
Altitude 30000
Route LUGEM DCT KIRDI DCT EBEDA L173 DODIL T127 TEKSI TEKSI1W
Aircraft B738/M-SDE2E3FGHIRWXY/LB1

Departure

Time 2026-05-07 10:02
Airport Vienna International Airport (LOWW)

Arrival

Time N/A
Airport Stuttgart Airport (EDDS)
Time Latitude Longitude Altitude Speed Heading
2026-05-07 09:43 48.11848 16.56937 598 ft 0 kts 206°
2026-05-07 09:53 48.11859 16.56945 598 ft 2 kts 207°
2026-05-07 09:53 48.11873 16.56955 598 ft 2 kts 205°
2026-05-07 09:53 48.11887 16.56965 598 ft 2 kts 206°
2026-05-07 09:53 48.11900 16.56974 597 ft 1 kts 206°
2026-05-07 09:54 48.11909 16.56980 597 ft 2 kts 191°
2026-05-07 09:54 48.11924 16.56979 597 ft 2 kts 158°
2026-05-07 09:54 48.11936 16.56966 597 ft 2 kts 127°
2026-05-07 09:54 48.11940 16.56957 597 ft 1 kts 111°
2026-05-07 09:55 48.11941 16.56951 597 ft 0 kts 115°
2026-05-07 09:57 48.11938 16.56963 597 ft 6 kts 115°
2026-05-07 09:57 48.11907 16.57060 598 ft 10 kts 116°
2026-05-07 09:57 48.11874 16.57155 599 ft 11 kts 118°
2026-05-07 09:57 48.11839 16.57254 599 ft 9 kts 117°
2026-05-07 09:58 48.11811 16.57354 600 ft 12 kts 100°
2026-05-07 09:58 48.11798 16.57463 600 ft 9 kts 137°
2026-05-07 09:58 48.11717 16.57517 601 ft 16 kts 164°
2026-05-07 09:58 48.11613 16.57550 602 ft 14 kts 167°
2026-05-07 09:59 48.11518 16.57593 603 ft 16 kts 161°
2026-05-07 09:59 48.11388 16.57653 604 ft 21 kts 166°
2026-05-07 09:59 48.11260 16.57681 606 ft 15 kts 200°
2026-05-07 09:59 48.11169 16.57615 607 ft 13 kts 206°
2026-05-07 10:00 48.11092 16.57631 607 ft 10 kts 147°
2026-05-07 10:00 48.11031 16.57638 608 ft 7 kts 201°
2026-05-07 10:00 48.11004 16.57622 608 ft 2 kts 201°
2026-05-07 10:00 48.10957 16.57588 609 ft 13 kts 211°
2026-05-07 10:01 48.10931 16.57482 609 ft 11 kts 293°
2026-05-07 10:01 48.10973 16.57349 609 ft 27 kts 296°
2026-05-07 10:01 48.11158 16.56781 605 ft 93 kts 296°
2026-05-07 10:01 48.11524 16.55662 592 ft 143 kts 292°
2026-05-07 10:02 48.12013 16.54168 776 ft 167 kts 292°
2026-05-07 10:02 48.12467 16.52599 1408 ft 164 kts 292°
2026-05-07 10:02 48.12678 16.50947 1934 ft 169 kts 271°
2026-05-07 10:02 48.12502 16.49215 2532 ft 169 kts 255°
2026-05-07 10:03 48.12100 16.47487 2868 ft 184 kts 252°
2026-05-07 10:03 48.11573 16.45607 3134 ft 205 kts 248°
2026-05-07 10:03 48.10981 16.43625 3511 ft 219 kts 252°
2026-05-07 10:03 48.10507 16.41391 3949 ft 230 kts 257°
2026-05-07 10:04 48.10113 16.39045 4450 ft 240 kts 258°
2026-05-07 10:04 48.09807 16.36573 5011 ft 247 kts 266°
2026-05-07 10:04 48.09778 16.33910 5456 ft 260 kts 272°
2026-05-07 10:04 48.09866 16.31206 6045 ft 267 kts 272°
2026-05-07 10:05 48.09956 16.28416 6675 ft 272 kts 271°
2026-05-07 10:05 48.10023 16.25600 7381 ft 273 kts 270°
2026-05-07 10:05 48.10075 16.22750 8058 ft 276 kts 269°
2026-05-07 10:05 48.10159 16.19914 8713 ft 278 kts 272°
2026-05-07 10:06 48.10370 16.17043 9362 ft 281 kts 275°
2026-05-07 10:06 48.10646 16.14161 9927 ft 285 kts 276°
2026-05-07 10:06 48.10940 16.11194 10438 ft 292 kts 275°
2026-05-07 10:06 48.11228 16.08137 10731 ft 306 kts 275°
2026-05-07 10:07 48.11520 16.04938 11090 ft 318 kts 275°
2026-05-07 10:07 48.11818 16.01599 11483 ft 329 kts 275°
2026-05-07 10:07 48.12122 15.98189 12013 ft 335 kts 275°
2026-05-07 10:07 48.12436 15.94728 12684 ft 337 kts 275°